Aeroporto :
LOGIN :

Iscrizione | Disclaimer

   EN    FR    IT 

 










Sommario :    VFR   VFR Marginale   IFR   IFR Intensivo   IFR Molto Intensivo
Visibilità : 
Base nubi : 
>= 8 km
>= 3000ft
5 / 8 km
1000 / 3000 ft
1500m / 5 km
500 / 1000 ft
800 / 1500m
200 / 500 ft
< 800m
< 200 ft
Simboli :   Temporali  Nebbia  Neve Forte  Precipitazioni Forti  Vento > 20 kt
SIGMETs :   Varie  Temporali  Ghiacco  Turbolenza  Onda orograficha  Ceneri Vulcaniche







- Altitudine del aeroporto : 28 ft
- Codice IATA : SOZ
- Carte del aeroporto


LFKS - Solenzara

ULTIMO METAR :
  • 242200Z AUTO 29005KT 250V310 CAVOK 18/12 Q1015

METARs OBSOLETI :
  • 242130Z AUTO 27007KT 240V300 CAVOK 18/12 Q1015
  • 242100Z AUTO 29007KT 270V330 CAVOK 18/13 Q1015
  • 242030Z AUTO 26006KT 220V290 CAVOK 18/12 Q1015
  • 242000Z AUTO 27007KT 240V310 CAVOK 18/13 Q1015
  • 241930Z AUTO 28006KT CAVOK 18/13 Q1015

TAF TAF LFKS
Valido dal 24 a 09 ore il 25 a 09 ore UTC


240800Z 2409/2509 05008KT 9999 FEW040
TEMPO 2409/2411 FEW030TCU
TEMPO 2411/2417 -TSRA FEW040CB
Nessun NOTAM noto per questo aeroporto.



MetMap, La meteo Aeronautica in un colpo d'occhio ! - Copyright ORBIFLY Dicembre 2007 - Disclaimer

ORBIFLY MET'MAP TEAM :

Programmazione e sviluppo : Alexandra Zaïnal
Concezione e sviluppo : Baudouin d'Aumeries
Co-Programmazione e sviluppo : Marc-Olivier Méhu
Supporto tecnico e logistico : Manuel Goepfert
Aiuto per la traduzione : Arnaldo La Scala

Contatto : metmap@orbifly.com




FONTI E CREDITI :

   NOAA